This is the latest recevied weather packets stored in our database for station/object K2ATL. If no packets are shown the sender has not sent any weather packets the latest 10 day(s).
| Time | Temp. | Humidity | Pressure | Rain* | Wind** | Luminosity | Snow |
|---|---|---|---|---|---|---|---|
| 1787365728 | 23.33° C | 84% | 1102.8 hPa | 0 mm | - | 0 W/m² | - |
| 1787365427 | 22.78° C | 86% | 1102.8 hPa | 0 mm | - | 0 W/m² | - |
| 1787365123 | 22.78° C | 86% | 1102.8 hPa | 0 mm | - | 0 W/m² | - |
| 1787364819 | 23.33° C | 85% | 1102.8 hPa | 0 mm | - | 0 W/m² | - |
| 1787364515 | 23.33° C | 85% | 1102.6 hPa | 0 mm | - | 0 W/m² | - |
| 1787364211 | 22.78° C | 86% | 1102.4 hPa | 0 mm | - | 0 W/m² | - |
| 1787363911 | 23.33° C | 84% | 1102.6 hPa | 0 mm | - | 0 W/m² | - |
| 1787363610 | 24.44° C | 80% | 1102.4 hPa | 0 mm | - | 0 W/m² | - |
| 1787363305 | 24.44° C | 80% | 1102.3 hPa | 0 mm | - | 0 W/m² | - |
| 1787362995 | 24.44° C | 79% | 1102.4 hPa | 0 mm | - | 0 W/m² | - |
| 1787362695 | 24.44° C | 79% | 1102 hPa | 0 mm | - | 0 W/m² | - |
| 1787362390 | 24.44° C | 78% | 1102.1 hPa | 0 mm | - | 0 W/m² | - |
| 1787362090 | 25° C | 77% | 1102.1 hPa | 0 mm | - | 0 W/m² | - |
| 1787361779 | 25° C | 76% | 1102.2 hPa | 0 mm | - | 0 W/m² | - |
| 1787361479 | 25° C | 76% | 1101.9 hPa | 0 mm | - | 0 W/m² | - |
| 1787361173 | 25° C | 75% | 1102.2 hPa | 0 mm | - | 0 W/m² | - |
| 1787360868 | 25° C | 76% | 1102.1 hPa | 0 mm | - | 0 W/m² | - |
| 1787360564 | 25° C | 75% | 1102.3 hPa | 0 mm | - | 0 W/m² | - |
| 1787360258 | 25° C | 75% | 1102.2 hPa | 0 mm | - | 0 W/m² | - |
| 1787359953 | 25° C | 77% | 1102.2 hPa | 0 mm | - | 0 W/m² | - |
| 1787359649 | 25° C | 77% | 1102 hPa | 0 mm | - | 0 W/m² | - |
| 1787359345 | 25° C | 79% | 1101.9 hPa | 0 mm | - | 0 W/m² | - |
| 1787359040 | 25° C | 79% | 1101.9 hPa | 0 mm | - | 0 W/m² | - |
| 1787358740 | 25° C | 78% | 1101.7 hPa | 0 mm | - | 0 W/m² | - |
| 1787358440 | 25° C | 78% | 1101.7 hPa | 0 mm | - | 1 W/m² | - |
* Rain latest hour (hover to see other rain measurements)
** Current wind speed in m/s (hover to see current wind gust speed)